STARLINK-36068

Last updated on Mon Dec 15 2025 00:02:12 GMT+0000 (Coordinated Universal Time)

1 66845U 25280AA 25348.25003472 -.01480465 00000+0 -11719-1 0 9990 2 66845 69.9933 194.4840 0003433 269.4626 79.4740 15.74076367 3143
UTC large
Height (km)
Speed (km/s)
/
Latitude / Longitude
Inclination (degrees)
Orbital Period (minutes)
Azimuth
Elevation
Range (km)
Doppler Factor

Next 0 passes for location: London (51.5072 / 0.1276)

Sorry there are no passes over London.